ONEWEB-0246 (48786 NORAD) Tracking and Keplerian Element Data

This shows tracking and keplerian element data for the satellite.

Feedback or suggestion? Click here.




ElementValue
Catalog48786
NameONEWEB-0246
Epoch Orbit192
Epoch Day170.58334491
Epoch Year2021
RAAN268.901
Inclination87.4039
Eccentricity0.0006894
Argument of Perigee186.2064
Mean Anonmoly82.7615
Mean Motion15.27951425
Decay Rate-0.00955535
L11 48786U 21045V 21170.58334491 -.00955535 00000-0 -37910-1 0 9998
L22 48786 87.4039 268.9010 0006894 186.2064 82.7615 15.27951425 1928

Live tracking and technical data element details for ONEWEB-0246 (NORAD 48786). ONEWEB-0246 can be tracked NOW for your location showing map with azimuth and elevation plus other details from your city location.

Track the satellite on the map from your city or location and see movement details for azimuth, elevation, latitude, longitude, range, height, and movement on the map or in text.







IsCatalogInMostPopularTable: catalog: 48786, numindb: 8
Update: records affected: 1



GetName: 48786 ONEWEB-0246

Hit Count: updated at: Mon, 21 Jun 2021 04:22:32 GMT